Time,TemperatureF,DewpointF,PressureIn,WindDirection,WindDirectionDegrees,WindSpeedMPH,WindSpeedGustMPH,Humidity,HourlyPrecipIn,Conditions,Clouds,dailyrainin,SoftwareType,DateUTC
2013-06-20 00:04:00,59.7,59.1,29.87,NW,315,0.0,-999.0,98,-99.99,,,0.00,Acu-Link.com,2013-06-20 04:04:00,
2013-06-20 00:20:00,59.0,58.4,29.87,ENE,67,0.0,-999.0,98,-99.99,,,0.00,Acu-Link.com,2013-06-20 04:20:00,
2013-06-20 00:35:00,59.5,58.9,29.87,SSE,157,0.0,-999.0,98,-99.99,,,0.00,Acu-Link.com,2013-06-20 04:35:00,
2013-06-20 00:50:00,58.8,58.2,29.87,NW,315,0.0,-999.0,98,-99.99,,,0.00,Acu-Link.com,2013-06-20 04:50:00,
2013-06-20 01:05:00,57.9,57.3,29.88,WNW,292,0.0,-999.0,98,-99.99,,,0.00,Acu-Link.com,2013-06-20 05:05:00,
2013-06-20 01:20:00,57.4,56.8,29.88,NW,315,0.0,-999.0,98,-99.99,,,0.00,Acu-Link.com,2013-06-20 05:20:00,
2013-06-20 01:35:00,56.7,56.1,29.89,NW,315,0.0,-999.0,98,-99.99,,,0.00,Acu-Link.com,2013-06-20 05:35:00,
2013-06-20 01:50:00,56.5,55.9,29.89,SSW,202,0.0,-999.0,98,-99.99,,,0.00,Acu-Link.com,2013-06-20 05:50:00,
2013-06-20 02:05:00,55.9,55.3,29.89,SSW,202,0.0,-999.0,98,-99.99,,,0.00,Acu-Link.com,2013-06-20 06:05:00,
2013-06-20 02:20:00,55.6,55.0,29.88,NW,315,0.0,-999.0,98,-99.99,,,0.00,Acu-Link.com,2013-06-20 06:20:00,
2013-06-20 02:36:00,55.0,54.4,29.88,NW,315,0.0,-999.0,98,-99.99,,,0.00,Acu-Link.com,2013-06-20 06:36:00,
2013-06-20 02:51:00,54.9,54.3,29.89,SSW,202,0.0,-999.0,98,-99.99,,,0.00,Acu-Link.com,2013-06-20 06:51:00,
2013-06-20 03:06:00,54.5,53.9,29.89,North,0,0.0,-999.0,98,-99.99,,,0.00,Acu-Link.com,2013-06-20 07:06:00,
2013-06-20 03:21:00,54.3,53.7,29.90,North,0,0.0,-999.0,98,-99.99,,,0.00,Acu-Link.com,2013-06-20 07:21:00,
2013-06-20 03:36:00,54.1,53.5,29.90,NW,315,0.0,-999.0,98,-99.99,,,0.00,Acu-Link.com,2013-06-20 07:36:00,
2013-06-20 03:51:00,54.1,53.5,29.91,NW,315,0.0,-999.0,98,-99.99,,,0.00,Acu-Link.com,2013-06-20 07:51:00,
2013-06-20 04:06:00,54.0,53.4,29.91,West,270,0.0,-999.0,98,-99.99,,,0.00,Acu-Link.com,2013-06-20 08:06:00,
2013-06-20 04:22:00,53.6,53.0,29.91,NW,315,0.0,-999.0,98,-99.99,,,0.00,Acu-Link.com,2013-06-20 08:22:00,
2013-06-20 04:37:00,53.4,52.8,29.91,NNW,337,0.0,-999.0,98,-99.99,,,0.00,Acu-Link.com,2013-06-20 08:37:00,
2013-06-20 04:52:00,53.2,52.6,29.91,NW,315,0.0,-999.0,98,-99.99,,,0.00,Acu-Link.com,2013-06-20 08:52:00,
2013-06-20 05:07:00,52.9,52.4,29.92,NW,315,0.0,-999.0,98,-99.99,,,0.00,Acu-Link.com,2013-06-20 09:07:00,
2013-06-20 05:22:00,52.3,51.8,29.92,West,270,0.0,-999.0,98,-99.99,,,0.00,Acu-Link.com,2013-06-20 09:22:00,
2013-06-20 05:37:00,52.3,51.8,29.92,NW,315,0.0,-999.0,98,-99.99,,,0.00,Acu-Link.com,2013-06-20 09:37:00,
2013-06-20 05:52:00,52.5,52.0,29.93,NW,315,0.0,-999.0,98,-99.99,,,0.00,Acu-Link.com,2013-06-20 09:52:00,
2013-06-20 09:01:00,69.1,68.5,29.96,East,90,0.0,-999.0,98,-99.99,,,0.00,Acu-Link.com,2013-06-20 13:01:00,
2013-06-20 09:16:00,70.7,70.1,29.95,NE,45,1.7,-999.0,98,-99.99,,,0.00,Acu-Link.com,2013-06-20 13:16:00,
2013-06-20 09:31:00,72.0,71.4,29.96,ESE,112,0.0,-999.0,98,-99.99,,,0.00,Acu-Link.com,2013-06-20 13:31:00,
2013-06-20 09:47:00,73.0,72.4,29.96,SW,225,1.7,-999.0,98,-99.99,,,0.00,Acu-Link.com,2013-06-20 13:47:00,
2013-06-20 10:02:00,73.4,72.8,29.96,SE,135,2.2,-999.0,98,-99.99,,,0.00,Acu-Link.com,2013-06-20 14:02:00,
2013-06-20 10:38:00,74.1,73.5,29.97,SSW,202,2.2,-999.0,98,-99.99,,,0.00,Acu-Link.com,2013-06-20 14:38:00,
2013-06-20 12:07:00,78.3,77.7,29.95,ESE,112,2.7,-999.0,98,-99.99,,,0.00,Acu-Link.com,2013-06-20 16:07:00,
2013-06-20 21:01:00,70.9,70.3,29.92,ESE,112,1.1,-999.0,98,-99.99,,,0.00,Acu-Link.com,2013-06-21 01:01:00,
2013-06-20 21:16:00,70.2,69.6,29.92,SSE,157,0.0,-999.0,98,-99.99,,,0.00,Acu-Link.com,2013-06-21 01:16:00,
2013-06-20 21:31:00,69.8,69.2,29.92,South,180,1.1,-999.0,98,-99.99,,,0.00,Acu-Link.com,2013-06-21 01:31:00,
2013-06-20 21:46:00,69.1,68.5,29.93,SW,225,0.0,-999.0,98,-99.99,,,0.00,Acu-Link.com,2013-06-21 01:46:00,
2013-06-20 22:01:00,68.4,67.8,29.94,SSE,157,0.0,-999.0,98,-99.99,,,0.00,Acu-Link.com,2013-06-21 02:01:00,
2013-06-20 22:16:00,67.8,67.2,29.94,SW,225,0.0,-999.0,98,-99.99,,,0.00,Acu-Link.com,2013-06-21 02:16:00,
2013-06-20 22:32:00,67.1,66.5,29.94,ESE,112,0.0,-999.0,98,-99.99,,,0.00,Acu-Link.com,2013-06-21 02:32:00,
2013-06-20 22:47:00,66.2,65.6,29.94,NW,315,0.0,-999.0,98,-99.99,,,0.00,Acu-Link.com,2013-06-21 02:47:00,
2013-06-20 23:02:00,65.8,65.2,29.95,North,0,0.0,-999.0,98,-99.99,,,0.00,Acu-Link.com,2013-06-21 03:02:00,
2013-06-20 23:17:00,65.3,64.7,29.95,NNW,337,0.0,-999.0,98,-99.99,,,0.00,Acu-Link.com,2013-06-21 03:17:00,
2013-06-20 23:32:00,64.4,63.8,29.95,NW,315,0.0,-999.0,98,-99.99,,,0.00,Acu-Link.com,2013-06-21 03:32:00,
2013-06-20 23:47:00,63.5,62.9,29.96,West,270,0.0,-999.0,98,-99.99,,,0.00,Acu-Link.com,2013-06-21 03:47:00,